Weather History for KHST - May, 2013

Change the Weather History Date:

Monday, May 13, 2013

  Actual Average (KMIA) Record (KMIA)
Temperature  
Mean Temperature 78 °F 80 °F  
Max Temperature 89 °F 87 °F 93 °F (1985)
Min Temperature 70 °F 73 °F 54 °F (1940)
Degree Days  
Heating Degree Days 0 0  
Month to date heating degree days 0  
Since 1 July heating degree days 128  
Cooling Degree Days 14 15  
Month to date cooling degree days 178  
Year to date cooling degree days 1071  
Growing Degree Days 28 (Base 50)    
Moisture  
Dew Point 70 °F    
Average Humidity 78    
Maximum Humidity 95    
Minimum Humidity 52    
Precipitation  
Precipitation 1.83 in 0.15 in 2.42 in (2003)
Month to date precipitation 1.58  
Year to date precipitation 11.59  
Snow  
Snow 0.00 in - - ()
Month to date snowfall  
Since 1 July snowfall  
Snow Depth -    
Sea Level Pressure  
Sea Level Pressure 30.07 in    
Wind  
Wind Speed 4 mph (NNW)    
Max Wind Speed 22 mph    
Max Gust Speed 25 mph    
Visibility 9 miles    
Events Fog , Rain    
T = Trace of Precipitation, MM = Missing Value Source: NWS Daily Summary

Daily Weather History Graph

Daily Weather History Graph

Search for Another Location

Airport or City:

Trip Planner

Search our weather history database for the weather conditions in past years. The results will help you decide how hot, cold, wet, or windy it might be!

Date:

Astronomy

May. 13, 2013 Rise Set
Actual Time 6:37 AM EDT 7:58 PM EDT
Civil Twilight 6:12 AM EDT 8:23 PM EDT
Nautical Twilight 5:43 AM EDT 8:53 PM EDT
Astronomical Twilight 5:12 AM EDT 9:23 PM EDT
Moon 9:24 AM EDT (5/13) 11:06 PM EDT (5/13)
Length of Visible Light 14h 11m
Length of Day
13h 21m
Waxing Crescent, 12% of the Moon is Illuminated
May 13
Waxing Crescent
May 18
First Quarter
May 25
Full
May 31
Last Quarter
Jun 8
New

Hourly Weather History & Observations

Time (EDT) Temp. Heat Index Dew Point Humidity Pressure Visibility Wind Dir Wind Speed Gust Speed Precip Events Conditions
12:55 AM 73.4 °F - 69.8 °F 88% 30.06 in 10.0 mi Calm Calm - N/A   Clear
1:58 AM 72.1 °F - 68.5 °F 88% 30.05 in 10.0 mi Calm Calm - N/A   Clear
2:58 AM 72.1 °F - 68.4 °F 88% 30.03 in 10.0 mi Calm Calm - N/A   Clear
3:58 AM 71.1 °F - 68.0 °F 90% 30.03 in 10.0 mi West 1.2 mph - N/A   Clear
4:58 AM 71.1 °F - 69.3 °F 94% 30.03 in 10.0 mi Calm Calm - N/A   Clear
5:58 AM 70.7 °F - 69.3 °F 95% 30.03 in 10.0 mi Calm Calm - N/A   Clear
6:58 AM 71.2 °F - 68.5 °F 91% 30.05 in 10.0 mi NW 3.5 mph - N/A   Clear
7:58 AM 73.9 °F - 70.9 °F 90% 30.07 in 10.0 mi NW 3.5 mph - N/A   Clear
8:58 AM 78.4 °F - 71.6 °F 79% 30.08 in 10.0 mi NNW 4.6 mph - N/A   Clear
9:58 AM 81.5 °F 85.5 °F 70.9 °F 70% 30.10 in 10.0 mi Variable 2.3 mph - N/A   Clear
10:58 AM 83.3 °F 87.4 °F 70.2 °F 64% 30.10 in 10.0 mi Calm Calm - N/A   Clear
11:58 AM 86.4 °F 90.7 °F 69.3 °F 57% 30.11 in 10.0 mi Variable 2.3 mph - N/A   Partly Cloudy
12:58 PM 87.1 °F 90.6 °F 68.0 °F 53% 30.08 in 10.0 mi SSW 4.6 mph - N/A   Partly Cloudy
1:58 PM 87.3 °F 92.4 °F 70.5 °F 57% 30.08 in 10.0 mi SE 6.9 mph - N/A   Partly Cloudy
2:58 PM 87.6 °F 93.5 °F 71.2 °F 58% 30.06 in 10.0 mi East 11.5 mph - N/A   Scattered Clouds
4:58 PM 86.4 °F 92.2 °F 71.6 °F 61% 30.03 in 10.0 mi SW 10.4 mph - N/A   Partly Cloudy
5:14 PM 87.8 °F 91.4 °F 68.0 °F 52% 30.03 in 10.0 mi NNW 21.9 mph 25.3 mph N/A   Scattered Clouds
5:32 PM 80.6 °F 83.2 °F 68.0 °F 65% 30.04 in 10.0 mi North 19.6 mph - N/A   Scattered Clouds
5:58 PM 79.3 °F - 67.6 °F 67% 30.05 in 10.0 mi North 6.9 mph - N/A   Clear
6:58 PM 83.5 °F 86.4 °F 67.6 °F 59% 30.04 in 10.0 mi WNW 12.7 mph - N/A   Clear
7:58 PM 81.7 °F 84.3 °F 67.6 °F 62% 30.05 in 10.0 mi West 3.5 mph - N/A   Mostly Cloudy
8:58 PM 78.4 °F - 70.2 °F 76% 30.07 in 10.0 mi ENE 3.5 mph - N/A   Partly Cloudy
9:10 PM 78.8 °F - 69.8 °F 74% 30.06 in 10.0 mi ENE 3.5 mph - N/A   Light Drizzle
9:14 PM 78.8 °F - 69.8 °F 74% 30.06 in 10.0 mi ENE 4.6 mph - N/A   Scattered Clouds
9:32 PM 78.8 °F - 71.6 °F 78% 30.07 in 10.0 mi West 9.2 mph - N/A   Light Drizzle
9:52 PM 75.2 °F - 71.6 °F 89% 30.07 in 3.0 mi WSW 4.6 mph - N/A Fog , Rain Heavy Rain
9:58 PM 75.4 °F - 71.4 °F 87% 30.08 in 3.0 mi Variable 4.6 mph - 0.59 in Rain Heavy Rain
10:06 PM 75.2 °F - 71.6 °F 89% 30.09 in 2.0 mi Variable 4.6 mph - N/A Rain Heavy Rain
10:15 PM 75.2 °F - 71.6 °F 89% 30.09 in 3.0 mi Variable 6.9 mph - N/A Rain Heavy Rain
10:22 PM 75.2 °F - 71.6 °F 89% 30.09 in 5.0 mi SE 9.2 mph - N/A Rain Rain
10:27 PM 75.2 °F - 71.6 °F 89% 30.09 in 7.0 mi Variable 4.6 mph - N/A Rain Rain
10:36 PM 75.2 °F - 71.6 °F 89% 30.08 in 10.0 mi SE 4.6 mph - N/A   Mostly Cloudy
10:41 PM 75.2 °F - 71.6 °F 89% 30.08 in 10.0 mi SE 4.6 mph - N/A   Mostly Cloudy
10:58 PM 74.8 °F - 71.6 °F 90% 30.10 in 10.0 mi ESE 4.6 mph - 1.24 in   Partly Cloudy
11:58 PM 74.7 °F - 72.7 °F 94% 30.10 in 10.0 mi North 2.3 mph - N/A   Partly Cloudy